TimeCST,TemperatureF,Dew PointF,Humidity,Sea Level PressureIn,VisibilityMPH,Wind Direction,Wind SpeedMPH,Gust SpeedMPH,PrecipitationIn,Events,Conditions,WindDirDegrees,DateUTC
12:13 AM,37.4,30.2,75,29.85,10.0,SE,16.1,-,N/A,,Clear,140,2012-11-08 06:13:00
12:34 AM,35.6,30.2,81,29.85,10.0,SE,16.1,-,N/A,,Clear,140,2012-11-08 06:34:00
12:54 AM,35.6,30.2,81,29.84,10.0,SSE,13.8,-,N/A,,Clear,150,2012-11-08 06:54:00
1:13 AM,35.6,30.2,81,29.84,10.0,SSE,16.1,20.7,N/A,,Clear,150,2012-11-08 07:13:00
1:34 AM,35.6,30.2,81,29.83,10.0,SE,15.0,18.4,N/A,,Clear,140,2012-11-08 07:34:00
1:54 AM,35.6,30.2,81,29.83,10.0,SE,15.0,-,N/A,,Clear,140,2012-11-08 07:54:00
2:13 AM,35.6,30.2,81,29.83,10.0,SE,13.8,-,N/A,,Clear,140,2012-11-08 08:13:00
2:34 AM,35.6,30.2,81,29.83,10.0,SE,12.7,-,N/A,,Clear,140,2012-11-08 08:34:00
2:54 AM,35.6,30.2,81,29.83,10.0,SE,10.4,-,N/A,,Clear,130,2012-11-08 08:54:00
3:13 AM,35.6,30.2,81,29.83,10.0,SE,12.7,-,N/A,,Clear,130,2012-11-08 09:13:00
3:34 AM,35.6,30.2,81,29.82,10.0,SE,11.5,-,N/A,,Clear,130,2012-11-08 09:34:00
3:53 AM,35.6,30.2,81,29.82,10.0,SE,12.7,-,N/A,,Clear,140,2012-11-08 09:53:00
4:14 AM,33.8,30.2,87,29.81,10.0,SE,12.7,-,N/A,,Clear,140,2012-11-08 10:14:00
4:34 AM,33.8,30.2,87,29.83,10.0,SE,9.2,-,N/A,,Clear,140,2012-11-08 10:34:00
4:53 AM,33.8,30.2,87,29.83,10.0,SE,9.2,-,N/A,,Clear,140,2012-11-08 10:53:00
5:14 AM,33.8,30.2,87,29.82,10.0,SE,10.4,-,N/A,,Clear,130,2012-11-08 11:14:00
5:34 AM,33.8,30.2,87,29.83,10.0,SE,9.2,-,N/A,,Clear,140,2012-11-08 11:34:00
5:53 AM,35.6,30.2,81,29.84,10.0,SE,8.1,-,N/A,,Clear,140,2012-11-08 11:53:00
6:14 AM,33.8,30.2,87,29.84,10.0,SE,8.1,-,N/A,,Clear,130,2012-11-08 12:14:00
6:53 AM,33.8,30.2,87,29.85,10.0,SE,5.8,-,N/A,,Clear,140,2012-11-08 12:53:00
7:14 AM,33.8,30.2,87,29.85,10.0,SE,4.6,-,N/A,,Clear,140,2012-11-08 13:14:00
7:33 AM,35.6,30.2,81,29.86,10.0,SE,4.6,-,N/A,,Clear,140,2012-11-08 13:33:00
7:54 AM,35.6,30.2,81,29.87,10.0,SE,4.6,-,N/A,,Clear,140,2012-11-08 13:54:00
8:14 AM,35.6,30.2,81,29.87,10.0,SSE,4.6,-,N/A,,Clear,150,2012-11-08 14:14:00
8:33 AM,39.2,32.0,75,29.88,10.0,SSE,4.6,-,N/A,,Clear,160,2012-11-08 14:33:00
8:54 AM,39.2,32.0,75,29.88,10.0,South,3.5,-,N/A,,Clear,180,2012-11-08 14:54:00
9:14 AM,39.2,32.0,75,29.89,10.0,Calm,Calm,-,N/A,,Clear,0,2012-11-08 15:14:00
9:33 AM,41.0,32.0,70,29.90,10.0,Calm,Calm,-,N/A,,Clear,0,2012-11-08 15:33:00
9:54 AM,42.8,33.8,70,29.90,10.0,Calm,Calm,-,N/A,,Clear,0,2012-11-08 15:54:00
10:14 AM,44.6,33.8,66,29.90,10.0,WNW,3.5,-,N/A,,Clear,300,2012-11-08 16:14:00
10:33 AM,46.4,33.8,62,29.91,10.0,NW,9.2,-,N/A,,Clear,320,2012-11-08 16:33:00
10:54 AM,46.4,33.8,62,29.91,10.0,NNW,11.5,-,N/A,,Clear,330,2012-11-08 16:54:00
11:13 AM,48.2,35.6,62,29.91,10.0,North,15.0,20.7,N/A,,Clear,350,2012-11-08 17:13:00
11:34 AM,48.2,35.6,62,29.91,10.0,North,18.4,24.2,N/A,,Clear,350,2012-11-08 17:34:00
11:54 AM,48.2,35.6,62,29.91,10.0,North,19.6,24.2,N/A,,Clear,350,2012-11-08 17:54:00
12:14 PM,48.2,37.4,66,29.92,10.0,North,19.6,26.5,N/A,,Clear,350,2012-11-08 18:14:00
12:34 PM,48.2,37.4,66,29.93,10.0,North,19.6,-,N/A,,Clear,360,2012-11-08 18:34:00
12:53 PM,50.0,37.4,62,29.93,10.0,North,20.7,26.5,N/A,,Clear,350,2012-11-08 18:53:00
1:14 PM,50.0,37.4,62,29.93,10.0,North,18.4,24.2,N/A,,Scattered Clouds,350,2012-11-08 19:14:00
1:34 PM,46.4,37.4,71,29.94,10.0,North,20.7,28.8,N/A,,Overcast,350,2012-11-08 19:34:00
1:53 PM,46.4,35.6,66,29.95,10.0,North,20.7,25.3,N/A,,Overcast,360,2012-11-08 19:53:00
2:14 PM,44.6,35.6,71,29.96,10.0,North,20.7,-,N/A,,Overcast,350,2012-11-08 20:14:00
2:34 PM,42.8,35.6,76,29.97,10.0,North,17.3,25.3,N/A,,Overcast,350,2012-11-08 20:34:00
2:53 PM,42.8,35.6,76,29.98,10.0,North,20.7,25.3,N/A,,Overcast,360,2012-11-08 20:53:00
3:14 PM,42.8,35.6,76,29.99,10.0,North,21.9,27.6,N/A,,Overcast,360,2012-11-08 21:14:00
3:34 PM,42.8,35.6,76,29.99,10.0,North,18.4,21.9,N/A,,Overcast,350,2012-11-08 21:34:00
3:54 PM,41.0,35.6,81,29.99,10.0,North,23.0,27.6,N/A,,Overcast,360,2012-11-08 21:54:00
4:14 PM,41.0,33.8,76,30.00,10.0,North,21.9,25.3,N/A,,Overcast,360,2012-11-08 22:14:00
4:31 PM,41.0,33.8,76,30.01,10.0,North,19.6,-,N/A,,Overcast,350,2012-11-08 22:31:00
4:54 PM,41.0,33.8,76,30.01,10.0,North,20.7,-,N/A,,Overcast,360,2012-11-08 22:54:00
5:14 PM,41.0,33.8,76,30.01,10.0,North,17.3,-,N/A,,Overcast,10,2012-11-08 23:14:00
5:33 PM,41.0,33.8,76,30.01,10.0,North,15.0,20.7,N/A,,Overcast,10,2012-11-08 23:33:00
5:54 PM,41.0,33.8,76,30.02,10.0,North,18.4,-,N/A,,Overcast,360,2012-11-08 23:54:00
6:13 PM,39.2,33.8,81,30.03,10.0,North,18.4,-,N/A,,Overcast,360,2012-11-09 00:13:00
6:34 PM,39.2,33.8,81,30.04,10.0,North,13.8,-,N/A,,Overcast,360,2012-11-09 00:34:00
6:54 PM,39.2,33.8,81,30.03,10.0,North,15.0,-,N/A,,Overcast,360,2012-11-09 00:54:00
7:13 PM,39.2,33.8,81,30.03,10.0,North,15.0,-,N/A,,Overcast,10,2012-11-09 01:13:00
7:34 PM,39.2,33.8,81,30.03,10.0,North,16.1,-,N/A,,Overcast,10,2012-11-09 01:34:00
7:54 PM,39.2,33.8,81,30.03,10.0,North,13.8,-,N/A,,Overcast,360,2012-11-09 01:54:00
8:13 PM,39.2,33.8,81,30.03,10.0,North,15.0,-,N/A,,Overcast,360,2012-11-09 02:13:00
8:34 PM,39.2,33.8,81,30.03,10.0,North,11.5,-,N/A,,Overcast,360,2012-11-09 02:34:00
8:54 PM,39.2,33.8,81,30.03,10.0,North,10.4,-,N/A,,Overcast,350,2012-11-09 02:54:00
9:14 PM,39.2,33.8,81,30.04,10.0,North,11.5,-,N/A,,Overcast,360,2012-11-09 03:14:00
9:34 PM,39.2,33.8,81,30.04,10.0,North,9.2,-,N/A,,Overcast,350,2012-11-09 03:34:00
9:54 PM,37.4,33.8,87,30.04,10.0,North,8.1,-,N/A,,Overcast,350,2012-11-09 03:54:00
10:14 PM,37.4,33.8,87,30.04,10.0,North,9.2,-,N/A,,Overcast,10,2012-11-09 04:14:00
10:34 PM,37.4,33.8,87,30.04,10.0,North,10.4,-,N/A,,Overcast,10,2012-11-09 04:34:00
10:53 PM,37.4,33.8,87,30.04,10.0,North,10.4,-,N/A,,Overcast,10,2012-11-09 04:53:00
11:14 PM,39.2,33.8,81,30.04,10.0,North,10.4,-,N/A,,Overcast,10,2012-11-09 05:14:00
11:34 PM,39.2,33.8,81,30.04,10.0,North,10.4,-,N/A,,Overcast,10,2012-11-09 05:34:00
11:53 PM,39.2,33.8,81,30.04,10.0,North,11.5,-,N/A,,Overcast,10,2012-11-09 05:53:00